Simultaneous Nadir Overpasses (SNOs) Predictions

Prediction of SNOs between GOES-16 and AQUA Satellite Orbit:

Table of predicted SNOs for the next 14.0 days since TLE Epoch: 3/10/2017
Index Date Time (GOES-16) GOES-16 Lat,Lon AQUA Lat,Lon Distance(km) Time Diff (sec)
1 03/10/2017 19:40:44 -0.00, -89.48 -0.45, -91.52 232.71 80
2 03/12/2017 19:31:16 0.00, -89.49 0.21, -88.58 102.80 80
3 03/13/2017 07:52:32 -0.00, -89.50 0.89, -93.74 482.52 80
4 03/14/2017 19:19:07 0.01, -89.50 0.81, -85.63 438.74 80
5 03/15/2017 07:40:23 -0.01, -89.51 0.29, -90.79 146.62 80
6 03/17/2017 07:25:35 -0.01, -89.52 -0.37, -87.85 189.63 80
7 03/17/2017 19:46:59 0.01, -89.51 -0.73, -93.05 401.88 80
8 03/19/2017 19:34:51 0.01, -89.53 -0.12, -90.10 65.12 80
9 03/21/2017 19:25:22 0.00, -89.54 0.50, -87.15 271.95 80
10 03/22/2017 07:46:37 -0.00, -89.56 0.61, -92.31 312.53 80
11 03/24/2017 07:31:49 0.00, -89.58 -0.07, -89.37 24.79 80




NCC Satellite Simultaneous Nadir Overpasses (SNOs) Prediction Service
